H1 CPF 2 NER 2021 1 28 9 028 01 glonass135 H2 1600801 9135 41330 2021 1 28 0 0 0 2021 1 31 23 45 0 900 1 1 0 0 0 1 H9 10 0 59242 0.00000 0 -12502904.239 -8315981.929 -20615099.922 10 0 59242 900.00000 0 -13420763.003 -10584756.258 -18933516.071 10 0 59242 1800.00000 0 -14414775.863 -12567555.749 -16884175.968 10 0 59242 2700.00000 0 -15430002.273 -14228030.786 -14506996.019 10 0 59242 3600.00000 0 -16407228.851 -15542236.610 -11848227.214 10 0 59242 4500.00000 0 -17285543.547 -16499379.812 -8959551.371 10 0 59242 5400.00000 0 -18004996.156 -17102021.449 -5897074.341 10 0 59242 6300.00000 0 -18509233.239 -17365730.239 -2720235.830 10 0 59242 7200.00000 0 -18747996.705 -17318202.311 509342.805 10 0 59242 8100.00000 0 -18679381.213 -16997886.221 3729050.492 10 0 59242 9000.00000 0 -18271755.707 -16452172.339 6876495.150 10 0 59242 9900.00000 0 -17505268.616 -15735223.700 9890705.946 10 0 59242 10800.00000 0 -16372873.622 -14905540.066 12713306.303 10 0 59242 11700.00000 0 -14880832.878 -14023357.743 15289635.566 10 0 59242 12600.00000 0 -13048676.232 -13147994.256 17569798.327 10 0 59242 13500.00000 0 -10908617.486 -12335248.932 19509622.010 10 0 59242 14400.00000 0 -8504450.946 -11634967.927 21071505.091 10 0 59242 15300.00000 0 -5889972.955 -11088875.227 22225140.387 10 0 59242 16200.00000 0 -3126992.425 -10728760.069 22948100.137 10 0 59242 17100.00000 0 -283011.192 -10575096.459 23226272.048 10 0 59242 18000.00000 0 2571331.298 -10636152.704 23054137.987 10 0 59242 18900.00000 0 5364944.792 -10907628.649 22434889.719 10 0 59242 19800.00000 0 8028996.732 -11372836.626 21380378.842 10 0 59242 20700.00000 0 10499531.283 -12003419.572 19910900.934 10 0 59242 21600.00000 0 12719891.157 -12760577.448 18054816.870 10 0 59242 22500.00000 0 14642842.116 -13596751.772 15848017.235 10 0 59242 23400.00000 0 16232311.792 -14457698.583 13333238.847 10 0 59242 24300.00000 0 17464670.233 -15284863.506 10559245.379 10 0 59242 25200.00000 0 18329498.295 -16017959.302 7579886.922 10 0 59242 26100.00000 0 18829811.287 -16597637.134 4453056.202 10 0 59242 27000.00000 0 18981728.137 -16968138.221 1239561.510 10 0 59242 27900.00000 0 18813599.885 -17079812.772 -1998061.507 10 0 59242 28800.00000 0 18364634.276 -16891398.279 -5196775.311 10 0 59242 29700.00000 0 17683074.973 -16371959.122 -8294278.357 10 0 59242 30600.00000 0 16824013.018 -15502403.666 -11230230.098 10 0 59242 31500.00000 0 15846924.055 -14276513.004 -13947437.831 10 0 59242 32400.00000 0 14813036.611 -12701436.311 -16392981.094 10 0 59242 33300.00000 0 13782643.903 -10797630.598 -18519250.671 10 0 59242 34200.00000 0 12812473.885 -8598246.469 -20284881.118 10 0 59242 35100.00000 0 11953229.539 -6147985.020 -21655558.297 10 0 59242 36000.00000 0 11247403.771 -3501473.462 -22604686.130 10 0 59242 36900.00000 0 10727461.299 -721227.406 -23113899.798 10 0 59242 37800.00000 0 10414463.922 2124715.031 -23173415.970 10 0 59242 38700.00000 0 10317196.498 4965388.602 -22782213.943 10 0 59242 39600.00000 0 10431829.556 7729617.587 -21948044.953 10 0 59242 40500.00000 0 10742131.595 10348740.887 -20687270.323 10 0 59242 41400.00000 0 11220220.954 12759232.669 -19024532.327 10 0 59242 42300.00000 0 11827824.365 14905110.198 -16992264.909 10 0 59242 43200.00000 0 12517988.098 16740029.770 -14630054.322 10 0 59242 44100.00000 0 13237168.665 18228984.858 -11983862.553 10 0 59242 45000.00000 0 13927614.291 19349537.249 -9105129.070 10 0 59242 45900.00000 0 14529936.309 20092531.658 -6049768.575 10 0 59242 46800.00000 0 14985761.852 20462265.860 -2877084.398 10 0 59242 47700.00000 0 15240356.004 20476111.086 351381.198 10 0 59242 48600.00000 0 15245103.029 20163600.331 3573037.527 10 0 59242 49500.00000 0 14959742.377 19565024.281 6725453.899 10 0 59242 50400.00000 0 14354265.552 18729594.889 9747562.693 10 0 59242 51300.00000 0 13410394.220 17713254.430 12580834.277 10 0 59242 52200.00000 0 12122577.351 16576222.282 15170401.659 10 0 59242 53100.00000 0 10498465.330 15380382.324 17466113.774 10 0 59242 54000.00000 0 8558840.461 14186620.117 19423497.942 10 0 59242 54900.00000 0 6337005.761 13052220.835 21004613.809 10 0 59242 55800.00000 0 3877656.207 12028436.234 22178783.043 10 0 59242 56700.00000 0 1235277.761 11158321.743 22923181.436 10 0 59242 57600.00000 0 -1527861.157 10474933.604 23223282.455 10 0 59242 58500.00000 0 -4344044.274 9999961.134 23073143.781 10 0 59242 59400.00000 0 -7142673.181 9742851.259 22475531.138 10 0 59242 60300.00000 0 -9852959.609 9700462.264 21441876.374 10 0 59242 61200.00000 0 -12406633.918 9857261.830 19992069.709 10 0 59242 62100.00000 0 -14740558.533 10186061.939 18154088.941 10 0 59242 63000.00000 0 -16799138.430 10649260.718 15963471.378 10 0 59242 63900.00000 0 -18536428.495 11200540.037 13462637.373 10 0 59242 64800.00000 0 -19917849.848 11786948.180 10700077.284 10 0 59242 65700.00000 0 -20921443.005 12351280.314 7729416.568 10 0 59242 66600.00000 0 -21538604.815 12834656.367 4608376.572 10 0 59242 67500.00000 0 -21774277.694 13179186.998 1397651.003 10 0 59242 68400.00000 0 -21646582.768 13330614.046 -1840279.909 10 0 59242 69300.00000 0 -21185912.107 13240812.412 -5042373.690 10 0 59242 70200.00000 0 -20433518.430 12870045.877 -8146263.549 10 0 59242 71100.00000 0 -19439662.244 12188879.555 -11091484.649 10 0 59242 72000.00000 0 -18261395.367 11179666.264 -13820663.417 10 0 59242 72900.00000 0 -16960075.441 9837542.265 -16280645.531 10 0 59242 73800.00000 0 -15598717.457 8170888.755 -18423539.575 10 0 59242 74700.00000 0 -14239295.177 6201238.521 -20207655.183 10 0 59242 75600.00000 0 -12940107.155 3962630.696 -21598317.035 10 0 59242 76500.00000 0 -11753319.014 1500440.097 -22568538.776 10 0 59242 77400.00000 0 -10722785.707 -1130270.064 -23099543.949 10 0 59242 78300.00000 0 -9882245.259 -3866803.372 -23181124.354 10 0 59242 79200.00000 0 -9253959.311 -6641207.534 -22811829.544 10 0 59242 80100.00000 0 -8847856.656 -9382874.637 -21998984.557 10 0 59242 81000.00000 0 -8661214.456 -12021256.155 -20758536.386 10 0 59242 81900.00000 0 -8678889.046 -14488579.974 -19114732.898 10 0 59242 82800.00000 0 -8874085.038 -16722456.744 -17099641.193 10 0 59242 83700.00000 0 -9209628.848 -18668267.877 -14752515.309 10 0 59242 84600.00000 0 -9639691.610 -20281236.763 -12119026.030 10 0 59242 85500.00000 0 -10111887.761 -21528098.095 -9250368.177 10 0 59243 0.00000 0 -10569659.957 -22388297.247 -6202263.056 10 0 59243 900.00000 0 -10954848.953 -22854670.987 -3033875.190 10 0 59243 1800.00000 0 -11210340.364 -22933583.408 193334.459 10 0 59243 2700.00000 0 -11282675.422 -22644511.783 3416797.846 10 0 59243 3600.00000 0 -11124516.990 -22019102.512 6574047.907 10 0 59243 4500.00000 0 -10696866.165 -21099736.857 9603922.471 10 0 59243 5400.00000 0 -9970936.659 -19937667.911 12447741.082 10 0 59243 6300.00000 0 -8929608.013 -18590807.127 15050432.599 10 0 59243 7200.00000 0 -7568396.433 -17121253.272 17361592.405 10 0 59243 8100.00000 0 -5895902.002 -15592666.916 19336449.683 10 0 59243 9000.00000 0 -3933712.614 -14067599.711 20936726.989 10 0 59243 9900.00000 0 -1715767.450 -12604889.358 22131376.305 10 0 59243 10800.00000 0 712795.136 -11257228.237 22897178.114 10 0 59243 11700.00000 0 3297259.271 -10069006.388 23219192.424 10 0 59243 12600.00000 0 5975357.295 -9074518.284 23091053.152 10 0 59243 13500.00000 0 8679617.573 -8296607.814 22515100.014 10 0 59243 14400.00000 0 11339938.857 -7745807.958 21502344.801 10 0 59243 15300.00000 0 13886285.974 -7420011.299 20072271.724 10 0 59243 16200.00000 0 16251396.197 -7304685.582 18252474.518 10 0 59243 17100.00000 0 18373384.684 -7373625.908 16078135.913 10 0 59243 18000.00000 0 20198140.824 -7590212.670 13591358.161 10 0 59243 18900.00000 0 21681415.548 -7909122.964 10840356.343 10 0 59243 19800.00000 0 22790511.964 -8278423.782 7878528.979 10 0 59243 20700.00000 0 23505507.821 -8641958.794 4763423.439 10 0 59243 21600.00000 0 23819957.768 -8941927.560 1555615.972 10 0 59243 22500.00000 0 23741045.153 -9121547.335 -1682471.665 10 0 59243 23400.00000 0 23289176.384 -9127683.640 -4887795.204 10 0 59243 24300.00000 0 22497034.681 -8913336.678 -7997925.731 10 0 59243 25200.00000 0 21408133.172 -8439876.556 -10952277.115 10 0 59243 26100.00000 0 20074928.768 -7678930.846 -13693297.699 10 0 59243 27000.00000 0 18556577.122 -6613842.840 -16167601.815 10 0 59243 27900.00000 0 16916424.202 -5240637.176 -18327018.074 10 0 59243 28800.00000 0 15219341.256 -3568450.735 -20129533.097 10 0 59243 29700.00000 0 13529016.256 -1619409.521 -21540111.963 10 0 59243 30600.00000 0 11905316.495 572044.153 -22531379.286 10 0 59243 31500.00000 0 10401833.584 2960346.358 -23084147.849 10 0 59243 32400.00000 0 9063713.894 5490478.443 -23187785.082 10 0 59243 33300.00000 0 7925864.977 8100036.518 -22840410.896 10 0 59243 34200.00000 0 7011612.303 10721617.103 -22048923.840 10 0 59243 35100.00000 0 6331861.295 13285419.516 -20828855.887 10 0 59243 36000.00000 0 5884798.155 15721956.654 -19204059.433 10 0 59243 36900.00000 0 5656140.260 17964761.477 -17206233.297 10 0 59243 37800.00000 0 5619923.700 19952976.906 -14874297.531 10 0 59243 38700.00000 0 5739793.043 21633721.964 -12253629.618 10 0 59243 39600.00000 0 5970737.454 22964136.341 -9395177.339 10 0 59243 40500.00000 0 6261198.683 23913019.253 -6354465.812 10 0 59243 41400.00000 0 6555461.021 24461995.473 -3190518.142 10 0 59243 42300.00000 0 6796221.761 24606161.128 35289.145 10 0 59243 43200.00000 0 6927233.292 24354183.695 3260413.720 10 0 59243 44100.00000 0 6895905.261 23727853.281 6422355.204 10 0 59243 45000.00000 0 6655757.095 22761105.079 9459859.825 10 0 59243 45900.00000 0 6168617.634 21498554.749 12314099.099 10 0 59243 46800.00000 0 5406479.349 19993608.494 14929800.320 10 0 59243 47700.00000 0 4352929.083 18306227.036 17256307.664 10 0 59243 48600.00000 0 3004094.915 16500436.704 19248554.266 10 0 59243 49500.00000 0 1369068.746 14641691.021 20867927.412 10 0 59243 50400.00000 0 -530214.132 12794192.149 22083010.924 10 0 59243 51300.00000 0 -2659634.912 11018282.942 22870191.173 10 0 59243 52200.00000 0 -4974064.904 9368017.293 23214115.530 10 0 59243 53100.00000 0 -7419006.026 7889009.215 23107994.527 10 0 59243 54000.00000 0 -9932632.065 6616649.490 22553741.786 10 0 59243 54900.00000 0 -12448147.972 5574763.792 21561948.408 10 0 59243 55800.00000 0 -14896370.909 4774768.102 20151691.414 10 0 59243 56700.00000 0 -17208427.320 4215356.748 18350178.741 10 0 59243 57600.00000 0 -19318454.881 3882736.415 16192236.284 10 0 59243 58500.00000 0 -21166197.294 3751396.748 13719645.505 10 0 59243 59400.00000 0 -22699383.731 3785385.631 10980343.169 10 0 59243 60300.00000 0 -23875793.141 3940035.753 8027497.605 10 0 59243 61200.00000 0 -24664916.162 4164069.823 4918478.840 10 0 59243 62100.00000 0 -25049144.005 4401995.248 1713742.302 10 0 59243 63000.00000 0 -25024433.367 4596686.393 -1524352.013 10 0 59243 63900.00000 0 -24600418.434 4692044.097 -4732761.198 10 0 59243 64800.00000 0 -23799964.627 4635618.419 -7848997.205 10 0 59243 65700.00000 0 -22658182.501 4381081.831 -10812355.410 10 0 59243 66600.00000 0 -21220943.416 3890446.338 -13565108.645 10 0 59243 67500.00000 0 -19542959.910 3135928.848 -16053642.211 10 0 59243 68400.00000 0 -17685512.270 2101384.180 -18229506.707 10 0 59243 69300.00000 0 -15713917.870 783243.718 -20050367.315 10 0 59243 70200.00000 0 -13694850.530 -809081.097 -21480830.608 10 0 59243 71100.00000 0 -11693623.208 -2653348.421 -22493132.751 10 0 59243 72000.00000 0 -9771548.561 -4715183.047 -23067675.833 10 0 59243 72900.00000 0 -7983488.100 -6949292.024 -23193402.448 10 0 59243 73800.00000 0 -6375692.226 -9301148.137 -22868001.923 10 0 59243 74700.00000 0 -4984020.838 -11709070.799 -22097944.928 10 0 59243 75600.00000 0 -3832617.678 -14106617.468 -20898346.652 10 0 59243 76500.00000 0 -2933092.300 -16425185.795 -19292661.933 10 0 59243 77400.00000 0 -2284242.026 -18596717.966 -17312218.992 10 0 59243 78300.00000 0 -1872323.461 -20556394.718 -14995601.411 10 0 59243 79200.00000 0 -1671860.056 -22245207.052 -12387890.801 10 0 59243 80100.00000 0 -1646949.850 -23612298.902 -9539785.326 10 0 59243 81000.00000 0 -1753016.583 -24616983.731 -6506611.464 10 0 59243 81900.00000 0 -1938928.981 -25230351.817 -3347248.361 10 0 59243 82800.00000 0 -2149397.819 -25436402.037 -122985.879 10 0 59243 83700.00000 0 -2327548.916 -25232651.978 3103661.528 10 0 59243 84600.00000 0 -2417563.108 -24630201.914 6270162.212 10 0 59243 85500.00000 0 -2367271.734 -23653250.915 9315172.746 10 0 59244 0.00000 0 -2130598.296 -22338086.118 12179718.414 10 0 59244 900.00000 0 -1669743.109 -20731587.654 14808326.819 10 0 59244 1800.00000 0 -957020.329 -18889312.359 17150092.529 10 0 59244 2700.00000 0 23732.130 -16873235.383 19159654.118 10 0 59244 3600.00000 0 1276227.139 -14749243.841 20798064.902 10 0 59244 4500.00000 0 2791328.408 -12584485.952 22033541.610 10 0 59244 5400.00000 0 4547193.316 -10444685.086 22842077.297 10 0 59244 6300.00000 0 6509954.337 -8391529.325 23207907.188 10 0 59244 7200.00000 0 8634912.425 -6480244.125 23123818.635 10 0 59244 8100.00000 0 10868194.725 -4757448.053 22591299.055 10 0 59244 9000.00000 0 13148809.751 -3259380.075 21620518.457 10 0 59244 9900.00000 0 15411016.369 -2010571.765 20230145.977 10 0 59244 10800.00000 0 17586909.717 -1023019.583 18447002.794 10 0 59244 11700.00000 0 19609117.641 -295891.776 16305556.723 10 0 59244 12600.00000 0 21413495.893 184217.573 13847266.921 10 0 59244 13500.00000 0 22941709.830 442497.779 11119790.033 10 0 59244 14400.00000 0 24143594.348 514627.052 8176062.111 10 0 59244 15300.00000 0 24979192.413 445028.707 5073273.469 10 0 59244 16200.00000 0 25420385.627 284751.842 1871756.097 10 0 59244 17100.00000 0 25452047.100 89066.589 -1366194.572 10 0 59244 18000.00000 0 25072666.904 -85123.434 -4577539.911 10 0 59244 18900.00000 0 24294422.722 -181940.643 -7699735.668 10 0 59244 19800.00000 0 23142691.949 -149150.787 -10671961.568 10 0 59244 20700.00000 0 21655025.413 59374.549 -13436317.590 10 0 59244 21600.00000 0 19879625.885 481456.292 -15938962.420 10 0 59244 22500.00000 0 17873395.738 1144761.927 -18131170.795 10 0 59244 23400.00000 0 15699636.460 2065394.797 -19970288.309 10 0 59244 24300.00000 0 13425497.324 3246979.453 -21420564.620 10 0 59244 25200.00000 0 11119280.932 4680282.622 -22453848.750 10 0 59244 26100.00000 0 8847719.101 6343386.370 -23050133.101 10 0 59244 27000.00000 0 6673333.327 8202406.588 -23197936.144 10 0 59244 27900.00000 0 4651990.007 10212726.877 -22894516.966 10 0 59244 28800.00000 0 2830752.045 12320696.055 -22145918.337 10 0 59244 29700.00000 0 1246115.504 14465718.223 -20966838.224 10 0 59244 30600.00000 0 -77296.562 16582647.888 -19380333.059 10 0 59244 31500.00000 0 -1127530.286 18604389.948 -17417359.198 10 0 59244 32400.00000 0 -1905556.007 20464595.956 -15116162.088 10 0 59244 33300.00000 0 -2424973.708 22100344.224 -12521525.447 10 0 59244 34200.00000 0 -2711183.398 23454692.023 -9683895.481 10 0 59244 35100.00000 0 -2800057.373 24478993.744 -6658397.406 10 0 59244 36000.00000 0 -2736172.036 25134888.712 -3503763.581 10 0 59244 36900.00000 0 -2570675.143 25395876.239 -281194.228 10 0 59244 37800.00000 0 -2358879.475 25248412.866 2946827.112 10 0 59244 38700.00000 0 -2157685.105 24692486.707 6117740.554 10 0 59244 39600.00000 0 -2022939.285 23741645.590 9170115.982 10 0 59244 40500.00000 0 -2006845.388 22422478.445 12044835.388 10 0 59244 41400.00000 0 -2155529.970 20773571.918 14686229.119 10 0 59244 42300.00000 0 -2506870.245 18843985.908 17043144.679 10 0 59244 43200.00000 0 -3088673.275 16691311.325 19069928.326 10 0 59244 44100.00000 0 -3917283.497 14379390.429 20727301.395 10 0 59244 45000.00000 0 -4996677.407 11975793.836 21983115.240 10 0 59244 45900.00000 0 -6318084.156 9549157.989 22812971.024 10 0 59244 46800.00000 0 -7860149.147 7166492.548 23200692.907 10 0 59244 47700.00000 0 -9589635.358 4890568.325 23138645.724 10 0 59244 48600.00000 0 -11462634.988 2777493.108 22627890.886 10 0 59244 49500.00000 0 -13426242.936 874575.073 21678176.983 10 0 59244 50400.00000 0 -15420624.262 -781438.043 20307764.377 10 0 59244 51300.00000 0 -17381391.257 -2165671.192 18543086.005 10 0 59244 52200.00000 0 -19242192.441 -3265931.208 16418249.572 10 0 59244 53100.00000 0 -20937406.275 -4082979.041 13974389.364 10 0 59244 54000.00000 0 -22404827.493 -4630253.533 11258878.923 10 0 59244 54900.00000 0 -23588233.428 -4933058.175 8324418.704 10 0 59244 55800.00000 0 -24439722.096 -5027244.900 5228015.787 10 0 59244 56700.00000 0 -24921722.808 -4957450.573 2029875.098 10 0 59244 57600.00000 0 -25008593.467 -4774961.006 -1207776.120 10 0 59244 58500.00000 0 -24687735.853 -4535293.566 -4421907.067 10 0 59244 59400.00000 0 -23960180.576 -4295601.778 -7549920.694 10 0 59244 60300.00000 0 -22840615.871 -4112013.240 -10530884.295 10 0 59244 61200.00000 0 -21356858.182 -4037015.176 -13306727.998 10 0 59244 62100.00000 0 -19548786.380 -4117000.046 -15823386.565 10 0 59244 63000.00000 0 -17466784.337 -4390076.734 -18031861.214 10 0 59244 63900.00000 0 -15169757.624 -4884241.365 -19889179.831 10 0 59244 64800.00000 0 -12722808.003 -5615986.268 -21359236.501 10 0 59244 65700.00000 0 -10194663.727 -6589406.736 -22413493.844 10 0 59244 66600.00000 0 -7654973.797 -7795843.832 -23031534.685 10 0 59244 67500.00000 0 -5171579.508 -9214078.630 -23201452.836 10 0 59244 68400.00000 0 -2807877.260 -10811069.832 -22920076.034 10 0 59244 69300.00000 0 -620382.295 -12543203.704 -22193017.497 10 0 59244 70200.00000 0 1343405.853 -14358003.718 -21034555.888 10 0 59244 71100.00000 0 3046748.495 -16196228.069 -19467346.787 10 0 59244 72000.00000 0 4464952.256 -17994266.957 -17521971.972 10 0 59244 72900.00000 0 5586141.307 -19686739.148 -15236335.863 10 0 59244 73800.00000 0 6411487.273 -21209179.111 -12654921.275 10 0 59244 74700.00000 0 6954889.446 -22500702.295 -9827919.408 10 0 59244 75600.00000 0 7242120.986 -23506537.215 -6810251.215 10 0 59244 76500.00000 0 7309479.031 -24180318.719 -3660499.349 10 0 59244 77400.00000 0 7201997.226 -24486046.826 -439771.626 10 0 59244 78300.00000 0 6971297.330 -24399629.705 2789481.917 10 0 59244 79200.00000 0 6673171.434 -23909946.750 5964675.526 10 0 59244 80100.00000 0 6364997.261 -23019387.774 9024294.533 10 0 59244 81000.00000 0 6103095.773 -21743846.197 11909079.480 10 0 59244 81900.00000 0 5940142.371 -20112166.697 14563165.205 10 0 59244 82800.00000 0 5922740.514 -18165070.377 16935153.484 10 0 59244 83700.00000 0 6089259.592 -15953601.955 18979099.353 10 0 59244 84600.00000 0 6468027.786 -13537162.940 20655392.983 10 0 59244 85500.00000 0 7075955.828 -10981211.803 21931520.880 10 0 59245 0.00000 0 7917649.700 -8354725.483 22782692.524 10 0 59245 900.00000 0 8985050.626 -5727526.232 23192320.958 10 0 59245 1800.00000 0 10257617.382 -3167583.436 23152348.147 10 0 59245 2700.00000 0 11703046.731 -738401.268 22663408.871 10 0 59245 3600.00000 0 13278501.776 1503401.317 21734829.449 10 0 59245 4500.00000 0 14932299.960 3510217.885 20384460.393 10 0 59245 5400.00000 0 16605991.516 5245201.827 18638345.127 10 0 59245 6300.00000 0 18236743.229 6683561.164 16530229.773 10 0 59245 7200.00000 0 19759928.906 7813346.898 14100922.090 10 0 59245 8100.00000 0 21111818.776 8635701.944 11397510.657 10 0 59245 9000.00000 0 22232255.180 9164560.046 8472458.282 10 0 59245 9900.00000 0 23067201.733 9425807.165 5382586.559 10 0 59245 10800.00000 0 23571057.875 9455940.692 2187970.939 10 0 59245 11700.00000 0 23708640.091 9300283.301 -1049232.062 10 0 59245 12600.00000 0 23456744.768 9010827.450 -4266002.072 10 0 59245 13500.00000 0 22805225.239 8643802.604 -7399691.835 10 0 59245 14400.00000 0 21757536.138 8257069.396 -10389258.706 10 0 59245 15300.00000 0 20330720.857 7907452.447 -13176465.270 10 0 59245 16200.00000 0 18554841.779 7648126.385 -15707024.477 10 0 59245 17100.00000 0 16471876.682 7526167.238 -17931665.868 10 0 59245 18000.00000 0 14134127.617 7580374.195 -19807101.250 10 0 59245 18900.00000 0 11602209.144 7839454.987 -21296870.522 10 0 59245 19800.00000 0 8942700.514 8320652.381 -22372051.087 10 0 59245 20700.00000 0 6225560.502 9028870.272 -23011817.164 10 0 59245 21600.00000 0 3521413.132 9956336.409 -23203838.633 10 0 59245 22500.00000 0 898817.656 11082815.922 -22944512.324 10 0 59245 23400.00000 0 -1578363.573 12376366.420 -22239022.002 10 0 59245 24300.00000 0 -3853390.285 13794602.541 -21101226.730 10 0 59245 25200.00000 0 -5878762.534 15286416.481 -19553380.516 10 0 59245 26100.00000 0 -7617945.097 16794081.836 -17625689.412 10 0 59245 27000.00000 0 -9046627.900 18255652.171 -15355715.246 10 0 59245 27900.00000 0 -10153471.964 19607553.492 -12787638.017 10 0 59245 28800.00000 0 -10940311.833 20787261.710 -9971391.696 10 0 59245 29700.00000 0 -11421808.301 21735952.848 -6961690.517 10 0 59245 30600.00000 0 -11624568.191 22401014.984 -3816964.801 10 0 59245 31500.00000 0 -11585770.070 22738316.782 -598227.228 10 0 59245 32400.00000 0 -11351355.341 22714137.851 2632108.444 10 0 59245 33300.00000 0 -10973862.115 22306680.359 5811433.376 10 0 59245 34200.00000 0 -10509993.904 21507098.891 8878151.093 10 0 59245 35100.00000 0 -10018026.009 20320005.702 11772863.358 10 0 59245 36000.00000 0 -9555158.915 18763430.266 14439512.070 10 0 59245 36900.00000 0 -9174929.921 16868234.700 16826455.712 10 0 59245 37800.00000 0 -8924791.568 14677009.017 18887460.380 10 0 59245 38700.00000 0 -8843958.249 12242491.438 20582587.175 10 0 59245 39600.00000 0 -8961611.172 9625578.559 21878959.636 10 0 59245 40500.00000 0 -9295536.931 6893006.702 22751397.204 10 0 59245 41400.00000 0 -9851257.032 4114799.234 23182903.092 10 0 59245 42300.00000 0 -10621685.487 1361584.259 23164997.353 10 0 59245 43200.00000 0 -11587329.860 -1298107.675 22697888.700 10 0 59245 44100.00000 0 -12717028.737 -3800455.163 21790481.234 10 0 59245 45000.00000 0 -13969196.336 -6088759.581 20460215.155 10 0 59245 45900.00000 0 -15293523.861 -8115561.413 18732743.354 10 0 59245 46800.00000 0 -16633067.923 -9844371.776 16641448.793 10 0 59245 47700.00000 0 -17926639.793 -11250947.199 14226810.605 10 0 59245 48600.00000 0 -19111396.142 -12324054.394 11535629.836 10 0 59245 49500.00000 0 -20125522.837 -13065692.904 8620128.682 10 0 59245 50400.00000 0 -20910898.706 -13490765.996 5536939.990 10 0 59245 51300.00000 0 -21415626.405 -13626213.569 2346006.275 10 0 59245 52200.00000 0 -21596322.526 -13509643.679 -890590.266 10 0 59245 53100.00000 0 -21420068.811 -13187520.764 -4109843.307 10 0 59245 54000.00000 0 -20865940.469 -12712987.838 -7249058.979 10 0 59245 54900.00000 0 -19926045.359 -12143415.759 -10247088.200 10 0 59245 55800.00000 0 -18606028.693 -11537784.525 -13045529.378 10 0 59245 56700.00000 0 -16925020.703 -10954008.865 -15589876.780 10 0 59245 57600.00000 0 -14915028.521 -10446322.718 -17830591.095 10 0 59245 58500.00000 0 -12619797.325 -10062834.562 -19724070.447 10 0 59245 59400.00000 0 -10093188.356 -9843358.045 -21233502.439 10 0 59245 60300.00000 0 -7397141.751 -9817610.325 -22329580.537 10 0 59245 61200.00000 0 -4599309.714 -10003854.594 -22991070.977 10 0 59245 62100.00000 0 -1770459.064 -10408044.099 -23205219.668 10 0 59245 63000.00000 0 1018248.416 -11023503.516 -22967991.838 10 0 59245 63900.00000 0 3697984.488 -11831160.606 -22284140.525 10 0 59245 64800.00000 0 6204878.677 -12800317.790 -21167103.406 10 0 59245 65700.00000 0 8482429.715 -13889930.528 -19638730.704 10 0 59245 66600.00000 0 10483604.838 -15050338.047 -17728850.169 10 0 59245 67500.00000 0 12172541.031 -16225373.099 -15474678.164 10 0 59245 68400.00000 0 13525779.069 -17354761.564 -12920088.751 10 0 59245 69300.00000 0 14532980.795 -18376710.729 -10114755.372 10 0 59245 70200.00000 0 15197101.833 -19230577.243 -7113182.106 10 0 59245 71100.00000 0 15534014.655 -19859502.613 -3973643.463 10 0 59245 72000.00000 0 15571599.775 -20212905.536 -757053.540 10 0 59245 72900.00000 0 15348345.062 -20248726.571 2474213.504 10 0 59245 73800.00000 0 14911513.492 -19935331.074 5657528.851 10 0 59245 74700.00000 0 14314957.443 -19252990.779 8731217.015 10 0 59245 75600.00000 0 13616672.189 -18194882.024 11635743.406 10 0 59245 76500.00000 0 12876191.754 -16767558.748 14314858.997 10 0 59245 77400.00000 0 12151936.566 -14990880.305 16716680.557 10 0 59245 78300.00000 0 11498624.084 -12897396.544 18794686.383 10 0 59245 79200.00000 0 10964850.641 -10531214.965 20508609.227 10 0 59245 80100.00000 0 10590945.506 -7946396.051 21825209.963 10 0 59245 81000.00000 0 10407186.754 -5204942.062 22718917.921 10 0 59245 81900.00000 0 10432453.554 -2374461.187 23172326.079 10 0 59245 82800.00000 0 10673371.472 474397.692 23176531.855 10 0 59245 83700.00000 0 11123987.102 3270634.982 22731316.863 10 0 59245 84600.00000 0 11765986.538 5945605.224 21845161.738 10 0 59245 85500.00000 0 12569449.690 8435625.845 20535094.886 99